When you browse on this site, cookies collect data to enhance your experience and personalize the content and advertising you see.
Visit our Privacy Policy to learn more. By continuing to use the site, you agree to this use of cookies and data.
  • In United Kingdom
  • List of Countries
  • For 7 days
  • Water Temperature
  • Satellite Maps
  • Weather Map
  • Weather Widgets
  • user-avatar
    Login

    Hourly Weather Kapan

    Today, 22 May, Wednesday

    Time Temperature Precipitation Wind Pressure Humidity
    00:00 +12°C° 0 mm 1 mps 687 mmHg 82%
    01:00 +12°C° 0 mm 1 mps 687 mmHg 81%
    02:00 +12°C° 0 mm 1 mps 686 mmHg 81%
    03:00 +12°C° 0 mm 1 mps 686 mmHg 79%
    04:00 +13°C° 0 mm 1 mps 686 mmHg 75%
    05:00 +14°C° 0 mm 1 mps 687 mmHg 72%
    06:00 +15°C° 0 mm 1 mps 687 mmHg 68%
    07:00 +18°C° 0 mm 1 mps 687 mmHg 62%
    08:00 +19°C° 0 mm 1 mps 687 mmHg 56%
    09:00 +20°C° 0 mm 2 mps 687 mmHg 49%
    10:00 +21°C° 0 mm 2 mps 687 mmHg 47%
    11:00 +23°C° 0 mm 2 mps 687 mmHg 44%
    12:00 +24°C° 0 mm 2 mps 686 mmHg 41%
    13:00 +25°C° 0 mm 3 mps 686 mmHg 40%
    14:00 +25°C° 0 mm 3 mps 686 mmHg 40%
    15:00 +26°C° 0 mm 3 mps 685 mmHg 39%
    16:00 +24°C° 0 mm 3 mps 685 mmHg 44%
    17:00 +22°C° 0 mm 3 mps 685 mmHg 49%
    18:00 +21°C° 0 mm 2 mps 684 mmHg 53%
    19:00 +19°C° 0.1 mm 2 mps 684 mmHg 59%
    20:00 +19°C° 0.1 mm 1 mps 684 mmHg 64%
    21:00 +16°C° 0.1 mm 1 mps 684 mmHg 70%
    22:00 +16°C° 0.1 mm 1 mps 684 mmHg 70%
    23:00 +16°C° 0.1 mm 1 mps 684 mmHg 71%

    Tomorrow, 23 May, Thursday

    Time Temperature Precipitation Wind Pressure Humidity
    00:00 +15°C° 0.1 mm 1 mps 684 mmHg 71%
    01:00 +15°C° 0 mm 1 mps 684 mmHg 71%
    02:00 +15°C° 0 mm 2 mps 683 mmHg 71%
    03:00 +15°C° 0 mm 2 mps 683 mmHg 71%
    04:00 +16°C° 0 mm 2 mps 684 mmHg 69%
    05:00 +18°C° 0 mm 1 mps 684 mmHg 67%
    06:00 +19°C° 0 mm 1 mps 684 mmHg 65%
    07:00 +21°C° 0 mm 1 mps 684 mmHg 58%
    08:00 +21°C° 0 mm 2 mps 684 mmHg 51%
    09:00 +24°C° 0 mm 2 mps 685 mmHg 44%
    10:00 +26°C° 0 mm 2 mps 684 mmHg 40%
    11:00 +27°C° 0 mm 3 mps 684 mmHg 36%
    12:00 +28°C° 0 mm 3 mps 684 mmHg 33%
    13:00 +28°C° 0.1 mm 3 mps 683 mmHg 34%
    14:00 +28°C° 0.1 mm 3 mps 683 mmHg 36%
    15:00 +28°C° 0.1 mm 3 mps 682 mmHg 38%
    16:00 +26°C° 0.4 mm 3 mps 682 mmHg 45%
    17:00 +24°C° 0.4 mm 3 mps 682 mmHg 53%
    18:00 +23°C° 0.4 mm 2 mps 682 mmHg 61%
    19:00 +20°C° 0.7 mm 2 mps 682 mmHg 68%
    20:00 +19°C° 0.7 mm 2 mps 682 mmHg 74%
    21:00 +19°C° 0.7 mm 1 mps 683 mmHg 81%
    22:00 +18°C° 0.2 mm 1 mps 683 mmHg 82%
    23:00 +18°C° 0.2 mm 1 mps 683 mmHg 82%

    Day after tomorrow, 24 May, Friday

    Time Temperature Precipitation Wind Pressure Humidity
    00:00 +16°C° 0.2 mm 1 mps 683 mmHg 83%
    01:00 +16°C° 0 mm 1 mps 683 mmHg 82%
    02:00 +16°C° 0 mm 1 mps 683 mmHg 81%
    03:00 +16°C° 0 mm 2 mps 683 mmHg 79%
    04:00 +17°C° 0 mm 2 mps 683 mmHg 76%
    05:00 +18°C° 0 mm 1 mps 684 mmHg 73%
    06:00 +19°C° 0 mm 1 mps 684 mmHg 70%
    07:00 +20°C° 0 mm 2 mps 684 mmHg 63%
    08:00 +23°C° 0 mm 2 mps 685 mmHg 56%
    09:00 +25°C° 0 mm 2 mps 685 mmHg 49%
    10:00 +26°C° 0 mm 3 mps 685 mmHg 45%
    11:00 +27°C° 0 mm 3 mps 685 mmHg 41%
    12:00 +29°C° 0 mm 3 mps 685 mmHg 37%
    13:00 +29°C° 0.1 mm 3 mps 685 mmHg 36%
    14:00 +30°C° 0.1 mm 3 mps 685 mmHg 35%
    15:00 +30°C° 0.1 mm 3 mps 684 mmHg 34%
    16:00 +28°C° 0.5 mm 3 mps 684 mmHg 43%
    17:00 +26°C° 0.5 mm 3 mps 684 mmHg 51%
    18:00 +24°C° 0.5 mm 2 mps 683 mmHg 60%
    19:00 +23°C° 0.2 mm 2 mps 684 mmHg 65%
    20:00 +20°C° 0.2 mm 2 mps 684 mmHg 70%
    21:00 +19°C° 0.2 mm 1 mps 684 mmHg 75%
    22:00 +19°C° 0.1 mm 1 mps 684 mmHg 75%
    23:00 +19°C° 0.1 mm 1 mps 685 mmHg 75%

    25 May, Saturday

    Time Temperature Precipitation Wind Pressure Humidity
    00:00 +18°C° 0.1 mm 1 mps 685 mmHg 75%
    01:00 +18°C° 0.1 mm 1 mps 685 mmHg 71%
    02:00 +18°C° 0.1 mm 2 mps 685 mmHg 68%
    03:00 +18°C° 0.1 mm 2 mps 685 mmHg 64%
    04:00 +19°C° 0 mm 2 mps 685 mmHg 62%
    05:00 +20°C° 0 mm 2 mps 685 mmHg 59%
    06:00 +22°C° 0 mm 1 mps 686 mmHg 57%
    07:00 +24°C° 0 mm 2 mps 686 mmHg 49%
    08:00 +27°C° 0 mm 2 mps 686 mmHg 41%
    09:00 +29°C° 0 mm 2 mps 687 mmHg 34%
    10:00 +30°C° 0 mm 3 mps 687 mmHg 30%
    11:00 +33°C° 0 mm 3 mps 686 mmHg 27%
    12:00 +34°C° 0 mm 3 mps 686 mmHg 24%
    13:00 +35°C° 0 mm 3 mps 686 mmHg 24%
    14:00 +35°C° 0 mm 3 mps 685 mmHg 24%
    15:00 +35°C° 0 mm 4 mps 685 mmHg 24%
    16:00 +33°C° 0.2 mm 3 mps 684 mmHg 33%
    17:00 +30°C° 0.2 mm 2 mps 684 mmHg 42%
    18:00 +27°C° 0.2 mm 1 mps 684 mmHg 51%
    19:00 +26°C° 0.3 mm 2 mps 684 mmHg 53%
    20:00 +24°C° 0.3 mm 2 mps 684 mmHg 54%
    21:00 +22°C° 0.3 mm 3 mps 684 mmHg 56%
    22:00 +22°C° 0.4 mm 3 mps 684 mmHg 53%
    23:00 +21°C° 0.4 mm 3 mps 684 mmHg 51%

    26 May, Sunday

    Time Temperature Precipitation Wind Pressure Humidity
    00:00 +21°C° 0.4 mm 3 mps 684 mmHg 49%
    01:00 +21°C° 0 mm 3 mps 684 mmHg 49%
    02:00 +20°C° 0 mm 3 mps 683 mmHg 48%
    03:00 +20°C° 0 mm 3 mps 683 mmHg 48%
    04:00 +21°C° 0 mm 3 mps 683 mmHg 48%
    05:00 +23°C° 0 mm 2 mps 684 mmHg 47%
    06:00 +23°C° 0 mm 2 mps 684 mmHg 47%
    07:00 +26°C° 0 mm 2 mps 684 mmHg 43%
    08:00 +28°C° 0 mm 2 mps 684 mmHg 38%
    09:00 +30°C° 0 mm 3 mps 684 mmHg 33%
    10:00 +31°C° 0 mm 3 mps 684 mmHg 31%
    11:00 +34°C° 0 mm 3 mps 684 mmHg 28%
    12:00 +35°C° 0 mm 4 mps 684 mmHg 25%
    13:00 +34°C° 0.3 mm 3 mps 683 mmHg 31%
    14:00 +33°C° 0.3 mm 3 mps 683 mmHg 37%
    15:00 +30°C° 0.3 mm 3 mps 682 mmHg 42%
    16:00 +29°C° 0.4 mm 3 mps 682 mmHg 49%
    17:00 +27°C° 0.4 mm 3 mps 682 mmHg 56%
    18:00 +26°C° 0.4 mm 3 mps 682 mmHg 63%
    19:00 +24°C° 0.4 mm 2 mps 682 mmHg 69%
    20:00 +22°C° 0.4 mm 1 mps 682 mmHg 74%
    21:00 +20°C° 0.4 mm 1 mps 682 mmHg 80%
    22:00 +20°C° 0.2 mm 1 mps 682 mmHg 81%
    23:00 +19°C° 0.2 mm 1 mps 683 mmHg 82%

    27 May, Monday

    Time Temperature Precipitation Wind Pressure Humidity
    00:00 +19°C° 0.2 mm 1 mps 683 mmHg 83%
    01:00 +18°C° 0 mm 1 mps 683 mmHg 84%
    02:00 +18°C° 0 mm 1 mps 683 mmHg 85%
    03:00 +18°C° 0 mm 1 mps 683 mmHg 86%
    04:00 +19°C° 0 mm 1 mps 684 mmHg 82%
    05:00 +17°C° 0 mm 0 mps 684 mmHg 79%
    06:00 +18°C° 0 mm 0 mps 685 mmHg 75%
    07:00 +22°C° 0 mm 1 mps 685 mmHg 68%
    08:00 +23°C° 0 mm 2 mps 686 mmHg 60%
    09:00 +25°C° 0 mm 3 mps 686 mmHg 52%
    10:00 +26°C° 0 mm 3 mps 686 mmHg 48%
    11:00 +27°C° 0 mm 3 mps 686 mmHg 44%
    12:00 +28°C° 0 mm 4 mps 686 mmHg 40%
    13:00 +28°C° 0.1 mm 4 mps 686 mmHg 42%
    14:00 +28°C° 0.1 mm 4 mps 686 mmHg 43%
    15:00 +28°C° 0.1 mm 4 mps 685 mmHg 44%
    16:00 +27°C° 0.6 mm 4 mps 685 mmHg 50%
    17:00 +26°C° 0.6 mm 4 mps 685 mmHg 56%
    18:00 +24°C° 0.6 mm 3 mps 685 mmHg 62%
    19:00 +21°C° 0.6 mm 2 mps 685 mmHg 70%
    20:00 +19°C° 0.6 mm 2 mps 686 mmHg 78%
    21:00 +19°C° 0.6 mm 1 mps 686 mmHg 86%
    22:00 +18°C° 0.4 mm 1 mps 686 mmHg 87%
    23:00 +18°C° 0.4 mm 1 mps 686 mmHg 89%
    Show more